Stations météo

réclame
Mon MeteoGroup
Dobbiaco, Italie (16033): Température de l'air & dewpoint: 18.01.2018 10:00:00 - 24.01.2018 10:00:00 (CET)Dobbiaco, Italie (16033): Vitesse du vent: 18.01.2018 10:00:00 - 24.01.2018 10:00:00 (CET)Dobbiaco, Italie (16033): Direction du vent: 18.01.2018 10:00:00 - 24.01.2018 10:00:00 (CET)Dobbiaco, Italie (16033): visibility: 18.01.2018 10:00:00 - 24.01.2018 10:00:00 (CET)
Date & Time tt [°C] td [°C] ff [km/h] ff [knt] dd vv [km]
24.01.2018 10:00:00 -5,4 -6,8 0 0 N 25
24.01.2018 09:00:00 -6,0 -8,0 0 0 N 10
24.01.2018 08:00:00 -6,0 -9,0 0 0 N 10
24.01.2018 07:00:00 -6,6 -8,8 0 0 N 12
24.01.2018 06:00:00 - - - - - -
24.01.2018 05:00:00 - - - - - -
24.01.2018 04:00:00 - - - - - -
24.01.2018 03:00:00 - - - - - -
24.01.2018 02:00:00 - - - - - -
24.01.2018 01:00:00 - - - - - -
24.01.2018 00:00:00 - - - - - -
23.01.2018 23:00:00 - - - - - -
23.01.2018 22:00:00 - - - - - -
23.01.2018 21:00:00 - - - - - -
23.01.2018 20:00:00 - - - - - -
23.01.2018 19:00:00 -2,2 -3,6 0 0 N 8
23.01.2018 18:00:00 -1,0 -3,0 0 0 N 10
23.01.2018 17:00:00 0,0 -2,0 0 0 N 10
23.01.2018 16:00:00 1,6 -1,5 0 0 N 25
23.01.2018 15:00:00 3,0 -1,0 0 0 N 10
23.01.2018 14:00:00 4,0 -2,0 0 0 N 10
23.01.2018 13:00:00 2,0 -0,8 0 0 N 25
23.01.2018 12:00:00 0,0 -2,0 0 0 N 10
23.01.2018 11:00:00 -1,0 -3,0 0 0 N 10
23.01.2018 10:00:00 0,4 -1,0 0 0 N 25
23.01.2018 09:00:00 -4,0 -4,0 0 0 N 10
23.01.2018 08:00:00 -4,0 -5,0 0 0 N 10
23.01.2018 07:00:00 -4,6 -5,1 5 3 W 12
23.01.2018 06:00:00 - - - - - -
23.01.2018 05:00:00 - - - - - -
23.01.2018 04:00:00 - - - - - -
23.01.2018 03:00:00 - - - - - -
23.01.2018 02:00:00 - - - - - -
23.01.2018 01:00:00 - - - - - -
23.01.2018 00:00:00 - - - - - -
22.01.2018 23:00:00 - - - - - -
22.01.2018 22:00:00 - - - - - -
22.01.2018 21:00:00 - - - - - -
22.01.2018 20:00:00 - - - - - -
22.01.2018 19:00:00 -0,8 -4,0 2 1 WNW 3,0
22.01.2018 18:00:00 -1,0 -5,0 2 1 W 10
22.01.2018 17:00:00 -1,0 -6,0 2 1 WNW 10
22.01.2018 16:00:00 -0,4 -6,8 0 0 N 25
22.01.2018 15:00:00 0,0 -6,0 5 3 W 10
22.01.2018 14:00:00 0,0 -5,0 5 3 W 10
22.01.2018 13:00:00 -0,4 -4,3 5 3 WNW 25
22.01.2018 12:00:00 -2,0 -4,0 4 2 NW 10
22.01.2018 11:00:00 -3,0 -5,0 2 1 WNW 10
22.01.2018 10:00:00 -4,2 -6,3 4 2 WNW 4,0
22.01.2018 09:00:00 -5,0 -7,0 4 2 WNW 10
22.01.2018 08:00:00 -6,0 -7,0 2 1 NW 6
22.01.2018 07:00:00 -6,0 -7,7 2 1 NW 6
22.01.2018 06:00:00 - - - - - -
22.01.2018 05:00:00 - - - - - -
22.01.2018 04:00:00 - - - - - -
22.01.2018 03:00:00 - - - - - -
22.01.2018 02:00:00 - - - - - -
22.01.2018 01:00:00 - - - - - -
22.01.2018 00:00:00 - - - - - -
21.01.2018 23:00:00 - - - - - -
21.01.2018 22:00:00 - - - - - -
21.01.2018 21:00:00 - - - - - -
21.01.2018 20:00:00 - - - - - -
21.01.2018 19:00:00 -3,6 -9,6 0 0 N 12
21.01.2018 18:00:00 -2,0 -10,0 2 1 W 10
21.01.2018 17:00:00 -1,0 -10,0 4 2 WNW 10
21.01.2018 16:00:00 -0,6 -9,7 5 3 WSW 20
21.01.2018 15:00:00 0,0 -9,0 5 3 W 10
21.01.2018 14:00:00 1,0 -7,0 0 0 N 10
21.01.2018 13:00:00 0,8 -3,1 0 0 N 7
21.01.2018 12:00:00 0,0 -3,0 0 0 N 10
21.01.2018 11:00:00 -2,0 -4,0 4 2 NW 7
21.01.2018 10:00:00 -2,0 -3,9 4 2 W 7
21.01.2018 09:00:00 -3,0 -5,0 0 0 N 10
21.01.2018 08:00:00 -3,0 -4,0 2 1 WNW 10
21.01.2018 07:00:00 -2,6 -4,3 4 2 WNW 7
21.01.2018 06:00:00 - - - - - -
21.01.2018 05:00:00 - - - - - -
21.01.2018 04:00:00 - - - - - -
21.01.2018 03:00:00 - - - - - -
21.01.2018 02:00:00 - - - - - -
21.01.2018 01:00:00 - - - - - -
21.01.2018 00:00:00 - - - - - -
20.01.2018 23:00:00 - - - - - -
20.01.2018 22:00:00 - - - - - -
20.01.2018 21:00:00 - - - - - -
20.01.2018 20:00:00 - - - - - -
20.01.2018 19:00:00 -1,9 -5,4 0 0 N 10
20.01.2018 18:00:00 -2,0 -6,0 2 1 E 10
20.01.2018 17:00:00 -2,0 -8,0 2 1 E 10
20.01.2018 16:00:00 -1,4 -8,0 2 1 E 30
20.01.2018 15:00:00 -1,0 -8,0 2 1 W 10
20.01.2018 14:00:00 -2,0 -8,0 2 1 NNW 10
20.01.2018 13:00:00 -2,9 -7,8 2 1 NW 30
20.01.2018 12:00:00 -5,0 -9,0 2 1 NNW 10
20.01.2018 11:00:00 -7,0 -10,0 2 1 W 10
20.01.2018 10:00:00 -8,8 -11,2 2 1 WSW 30
20.01.2018 09:00:00 -9,0 -11,0 2 1 WSW 10
20.01.2018 08:00:00 -9,0 -12,0 2 1 WSW 10
20.01.2018 07:00:00 -8,5 -11,3 2 1 SSW 20
20.01.2018 06:00:00 - - - - - -
20.01.2018 05:00:00 - - - - - -
20.01.2018 04:00:00 - - - - - -
20.01.2018 03:00:00 - - - - - -
20.01.2018 02:00:00 - - - - - -
20.01.2018 01:00:00 - - - - - -
20.01.2018 00:00:00 - - - - - -
19.01.2018 23:00:00 - - - - - -
19.01.2018 22:00:00 - - - - - -
19.01.2018 21:00:00 - - - - - -
19.01.2018 20:00:00 - - - - - -
19.01.2018 19:00:00 -2,5 -7,2 4 2 W 10
19.01.2018 18:00:00 -2,0 -7,0 4 2 WSW 10
19.01.2018 17:00:00 -1,0 -7,0 0 0 N 10
19.01.2018 16:00:00 0,4 -4,4 2 1 W 30
19.01.2018 15:00:00 2,0 -5,0 4 2 WNW 10
19.01.2018 14:00:00 1,0 -4,0 0 0 N 10
19.01.2018 13:00:00 0,2 -3,5 13 7 E 18
19.01.2018 12:00:00 -1,0 -5,0 11 6 N 10
19.01.2018 11:00:00 -2,0 -6,0 5 3 E 10
19.01.2018 10:00:00 -4,2 -6,2 0 0 N 30
19.01.2018 09:00:00 -6,0 -8,0 2 1 W 10
19.01.2018 08:00:00 -6,0 -8,0 2 1 W 10
19.01.2018 07:00:00 -5,4 -7,5 2 1 NW 18
19.01.2018 06:00:00 - - - - - -
19.01.2018 05:00:00 - - - - - -
19.01.2018 04:00:00 - - - - - -
19.01.2018 03:00:00 - - - - - -
19.01.2018 02:00:00 - - - - - -
19.01.2018 01:00:00 - - - - - -
19.01.2018 00:00:00 - - - - - -
18.01.2018 23:00:00 - - - - - -
18.01.2018 22:00:00 - - - - - -
18.01.2018 21:00:00 - - - - - -
18.01.2018 20:00:00 - - - - - -
18.01.2018 19:00:00 -3,2 -7,2 0 0 N 12
18.01.2018 18:00:00 -1,0 -9,0 0 0 N 10
18.01.2018 17:00:00 -1,0 -8,0 0 0 N 10
18.01.2018 16:00:00 -0,2 -9,4 4 2 W 25
18.01.2018 15:00:00 0,0 -10,0 4 2 W 10
18.01.2018 14:00:00 1,0 -7,0 5 3 W 10
18.01.2018 13:00:00 0,0 -6,4 4 2 W 25
18.01.2018 12:00:00 -1,0 -6,0 5 3 W 10
18.01.2018 11:00:00 -2,0 -6,0 2 1 W 10
18.01.2018 10:00:00 -3,4 -6,7 0 0 N 20

tt = Température de l'air
td = dewpoint
ff = Vitesse du vent
dd = Direction du vent
vv = visibility

stations d'obs. à proximité